Location: Unspecified
(22.6800°N, 112.2000°E)
Time: 08:06:07
(UTC+08:00)

Courier 1B Rocket - Pass Details

Date: 05 August 2021
Orbit: 920 x 1202 km, 28.3° (Epoch: 22 September)

Event Time Altitude Azimuth Distance (km) Brightness Sun altitude
Rises 21:00:16 0° 217° (SW) 4,084 8.3 -23.9°
Reaches altitude 10° 21:03:37 10° 205° (SSW) 3,108 7.5 -24.5°
Enters shadow 21:07:02 22° 183° (S) 2,321 6.7 -25.2°
